SL-8 DEB, 1480

Orbit data source: Space-Track

SL-8 DEB, 1480 is space debris in LEO originally from a launch on Mon, 15 Mar 1965 UTC launched from the Tyuratam Missile And Space Complex (TTMTR). Debris objects in space refer to the collection of defunct objects orbiting the Earth. Examples of debris include non-operational satellites, rocket bodies, and fragments generated from explosions, collisions, or faulty payload assembly.

Loading next visibility...
Identifier
1480, 1965-020BE
Orbit
LEO
Last TLE update
18 hours ago
Origin
Manufacturer
Unknown
Mission
Spacecraft
Bus & Motor
Unknown
Mass
Unknown
Launch date (UTC)
1965-03-15 (60 years ago)
Launch vehicle
Unknown
Launch site
Tyuratam Missile And Space Complex (TTMTR)
Object type
Payload
Rocket body
Debris
Shape & HBR
Unknown
Radar Cross Section
Medium (>0.1 m² and <1 m²)

Expand to show TLE details & history

TLE from 18 hours ago
0 SL-8 DEB
1 01480U 65020BE  25129.10907826 -.00000304  00000-0 -27998-3 0  9995
2 01480  56.0755  31.8042 0835221 237.0554 114.7363 12.64260670759019
Epoch: 2025-05-09T02:37Z
Definitive object data (Epoch: 2025-05-09T02:37:04.361Z)
Latitude
-0.00002°
Longitude
125.36607°
Altitude
1,720.883 km
Speed
6.874 km/s
True Right ascension
02h 07m 13s
True Declination
0° 00' 00"
Sunlit
Object was in daylight at TLE epoch
Visualization TLE readout
Latitude
45.42548°
Longitude
-99.51506°
Altitude
1,661.38 km
Speed
6.933 km/s
Apparent Right ascension
13h 37m 56s
Apparent Declination
11° 35' 33"
Sunlit
Object is in daylight
Visualization observer readout
Local Sidereal Time
04:36:39
Azimuth
48.889° ENE
Elevation
-23.911°
Doppler factor
1
Orbital elements
Apogee altitude
2,055.308 km
Perigee altitude
755.142 km
Semi-major axis
7,783.362 km
Eccentricity
0.0835221
Inclination
56.0755°
RAAN
31.8042°
Arg. of periapsis
237.0554°
True anomaly
123.03566°
Mean anomaly
114.7363°
Eccentric anomaly
118.9248°
Mean motion
3.16077 °/min
BSTAR
-0.00027998
Orbital period
113.9 mins
Loading maneuver chart data...
Loading SW <> Apogee altitude chart data...
Loading historical data...
Loading historical data...
Loading historical data...
Loading historical data...
Loading historical data...
Loading historical data...
Loading historical data...

SL-8 DEB Visibility forecast

Observer location: undefined°, undefined°

Span
Click to sort rows by Start time (UTC) header in descending order
Start Az.
Max El. time (UTC)
Max El. Az.
Max El.
End time (UTC)
End Az.
22 mins2025-05-09 21:49:31.058Z265.341° W2025-05-09 22:00:31.058Z332.512° NNW35.695°2025-05-09 22:11:31.058Z46.052° ENE
18 mins2025-05-09 23:54:31.058Z305.144° NW2025-05-10 00:03:31.058Z2.685° NNE29.668°2025-05-10 00:12:31.058Z63.576° ENE
18 mins2025-05-10 01:55:31.058Z316.508° NNW2025-05-10 02:05:31.058Z27.052° NE37.75°2025-05-10 02:13:31.058Z100.807° ESE
16 mins2025-05-10 03:56:31.058Z309.381° NW2025-05-10 04:05:31.058Z227.878° WSW41.705°2025-05-10 04:12:31.058Z156.477° SSE
4 mins2025-05-10 06:00:31.058Z265.593° W2025-05-10 06:01:31.058Z258.786° W11.764°2025-05-10 06:04:31.058Z237.172° WSW
5 mins2025-05-10 16:44:31.058Z114.022° SE2025-05-10 16:46:31.058Z103.499° ESE11.891°2025-05-10 16:49:31.058Z88.346° E
20 mins2025-05-10 18:34:31.058Z191.011° SSW2025-05-10 18:43:31.058Z121.541° SE38.838°2025-05-10 18:54:31.058Z52.014° ENE
|